• In Moldova, Republic
  • List of Countries
  • For 7 days
  • Water Temperature
  • Satellite Maps
  • Weather Map
  • Weather Widgets
  • user-avatar
    Login

    Hourly Weather Shaki

    Today, 28 April, Friday

    Time Temperature Precipitation Wind Pressure Humidity
    00:00 +8°C° 0 mm 2 mps 744 mmHg 63%
    01:00 +8°C° 0 mm 2 mps 744 mmHg 63%
    02:00 +9°C° 0 mm 1 mps 744 mmHg 62%
    03:00 +9°C° 0 mm 1 mps 743 mmHg 63%
    04:00 +10°C° 0 mm 1 mps 743 mmHg 63%
    05:00 +11°C° 0 mm 1 mps 743 mmHg 63%
    06:00 +11°C° 0 mm 1 mps 743 mmHg 63%
    07:00 +13°C° 0 mm 1 mps 742 mmHg 59%
    08:00 +14°C° 0 mm 1 mps 742 mmHg 55%
    09:00 +16°C° 0 mm 2 mps 742 mmHg 50%
    10:00 +17°C° 0 mm 2 mps 742 mmHg 48%
    11:00 +18°C° 0 mm 2 mps 741 mmHg 45%
    12:00 +19°C° 0 mm 2 mps 741 mmHg 43%
    13:00 +19°C° 0 mm 2 mps 741 mmHg 43%
    14:00 +20°C° 0 mm 2 mps 740 mmHg 43%
    15:00 +20°C° 0 mm 2 mps 740 mmHg 43%
    16:00 +19°C° 0 mm 2 mps 740 mmHg 49%
    17:00 +18°C° 0 mm 2 mps 740 mmHg 55%
    18:00 +18°C° 0 mm 1 mps 739 mmHg 60%
    19:00 +15°C° 0 mm 1 mps 739 mmHg 65%
    20:00 +13°C° 0 mm 1 mps 740 mmHg 70%
    21:00 +12°C° 0 mm 1 mps 740 mmHg 74%
    22:00 +11°C° 0 mm 1 mps 740 mmHg 74%
    23:00 +11°C° 0 mm 1 mps 739 mmHg 75%

    Tomorrow, 29 April, Saturday

    Time Temperature Precipitation Wind Pressure Humidity
    00:00 +10°C° 0 mm 1 mps 739 mmHg 75%
    01:00 +10°C° 0 mm 1 mps 739 mmHg 76%
    02:00 +10°C° 0 mm 1 mps 739 mmHg 78%
    03:00 +10°C° 0 mm 1 mps 738 mmHg 79%
    04:00 +11°C° 0 mm 1 mps 738 mmHg 75%
    05:00 +12°C° 0 mm 1 mps 738 mmHg 70%
    06:00 +13°C° 0 mm 1 mps 738 mmHg 66%
    07:00 +15°C° 0 mm 1 mps 738 mmHg 59%
    08:00 +18°C° 0 mm 2 mps 738 mmHg 52%
    09:00 +20°C° 0 mm 2 mps 738 mmHg 45%
    10:00 +21°C° 0 mm 2 mps 738 mmHg 43%
    11:00 +23°C° 0 mm 1 mps 737 mmHg 41%
    12:00 +24°C° 0 mm 1 mps 737 mmHg 38%
    13:00 +24°C° 0.1 mm 1 mps 737 mmHg 38%
    14:00 +24°C° 0.1 mm 2 mps 736 mmHg 38%
    15:00 +24°C° 0.1 mm 2 mps 736 mmHg 39%
    16:00 +23°C° 0 mm 2 mps 736 mmHg 43%
    17:00 +21°C° 0 mm 2 mps 736 mmHg 48%
    18:00 +21°C° 0 mm 1 mps 736 mmHg 53%
    19:00 +18°C° 0 mm 2 mps 736 mmHg 56%
    20:00 +16°C° 0 mm 2 mps 736 mmHg 60%
    21:00 +14°C° 0 mm 2 mps 737 mmHg 63%
    22:00 +14°C° 0 mm 2 mps 737 mmHg 63%
    23:00 +14°C° 0 mm 1 mps 737 mmHg 63%

    Day after tomorrow, 30 April, Sunday

    Time Temperature Precipitation Wind Pressure Humidity
    00:00 +13°C° 0 mm 1 mps 737 mmHg 63%
    01:00 +13°C° 0 mm 1 mps 736 mmHg 64%
    02:00 +12°C° 0 mm 1 mps 736 mmHg 64%
    03:00 +12°C° 0 mm 1 mps 736 mmHg 65%
    04:00 +13°C° 0 mm 1 mps 736 mmHg 61%
    05:00 +14°C° 0 mm 1 mps 736 mmHg 57%
    06:00 +15°C° 0 mm 1 mps 736 mmHg 53%
    07:00 +19°C° 0 mm 1 mps 736 mmHg 47%
    08:00 +20°C° 0 mm 2 mps 736 mmHg 41%
    09:00 +23°C° 0 mm 2 mps 736 mmHg 34%
    10:00 +24°C° 0 mm 1 mps 736 mmHg 33%
    11:00 +25°C° 0 mm 1 mps 736 mmHg 31%
    12:00 +27°C° 0 mm 1 mps 735 mmHg 30%
    13:00 +27°C° 0 mm 1 mps 735 mmHg 30%
    14:00 +27°C° 0 mm 1 mps 735 mmHg 30%
    15:00 +27°C° 0 mm 1 mps 734 mmHg 30%
    16:00 +26°C° 0 mm 1 mps 734 mmHg 35%
    17:00 +24°C° 0 mm 1 mps 734 mmHg 40%
    18:00 +23°C° 0 mm 1 mps 734 mmHg 45%
    19:00 +21°C° 0 mm 1 mps 734 mmHg 45%
    20:00 +18°C° 0 mm 2 mps 735 mmHg 44%
    21:00 +16°C° 0 mm 2 mps 735 mmHg 43%
    22:00 +16°C° 0 mm 2 mps 735 mmHg 43%
    23:00 +15°C° 0 mm 1 mps 735 mmHg 44%

    1 May, Monday

    Time Temperature Precipitation Wind Pressure Humidity
    00:00 +15°C° 0 mm 1 mps 735 mmHg 44%
    01:00 +14°C° 0 mm 1 mps 734 mmHg 45%
    02:00 +14°C° 0 mm 1 mps 734 mmHg 47%
    03:00 +14°C° 0 mm 1 mps 734 mmHg 48%
    04:00 +15°C° 0 mm 1 mps 734 mmHg 47%
    05:00 +16°C° 0 mm 1 mps 735 mmHg 47%
    06:00 +16°C° 0 mm 1 mps 735 mmHg 46%
    07:00 +19°C° 0 mm 2 mps 735 mmHg 40%
    08:00 +23°C° 0 mm 2 mps 735 mmHg 34%
    09:00 +25°C° 0 mm 2 mps 735 mmHg 27%
    10:00 +26°C° 0 mm 2 mps 735 mmHg 26%
    11:00 +27°C° 0 mm 1 mps 735 mmHg 26%
    12:00 +28°C° 0 mm 1 mps 735 mmHg 25%
    13:00 +28°C° 0 mm 1 mps 734 mmHg 25%
    14:00 +29°C° 0 mm 2 mps 734 mmHg 25%
    15:00 +29°C° 0 mm 2 mps 734 mmHg 26%
    16:00 +27°C° 0 mm 2 mps 734 mmHg 31%
    17:00 +26°C° 0 mm 2 mps 734 mmHg 37%
    18:00 +24°C° 0 mm 1 mps 734 mmHg 42%
    19:00 +21°C° 0 mm 2 mps 734 mmHg 44%
    20:00 +19°C° 0 mm 2 mps 735 mmHg 46%
    21:00 +17°C° 0 mm 2 mps 735 mmHg 48%
    22:00 +17°C° 0 mm 2 mps 735 mmHg 48%
    23:00 +16°C° 0 mm 2 mps 735 mmHg 49%

    2 May, Tuesday

    Time Temperature Precipitation Wind Pressure Humidity
    00:00 +15°C° 0 mm 2 mps 735 mmHg 49%
    01:00 +16°C° 0 mm 2 mps 734 mmHg 47%
    02:00 +16°C° 0 mm 1 mps 734 mmHg 44%
    03:00 +16°C° 0 mm 1 mps 734 mmHg 42%
    04:00 +18°C° 0 mm 1 mps 734 mmHg 43%
    05:00 +18°C° 0 mm 1 mps 734 mmHg 45%
    06:00 +19°C° 0 mm 1 mps 734 mmHg 46%
    07:00 +21°C° 0 mm 1 mps 734 mmHg 40%
    08:00 +23°C° 0 mm 1 mps 734 mmHg 34%
    09:00 +25°C° 0 mm 1 mps 734 mmHg 28%
    10:00 +26°C° 0 mm 2 mps 733 mmHg 28%
    11:00 +27°C° 0 mm 2 mps 733 mmHg 27%
    12:00 +28°C° 0 mm 3 mps 733 mmHg 26%
    13:00 +28°C° 0 mm 3 mps 732 mmHg 26%
    14:00 +29°C° 0 mm 3 mps 732 mmHg 27%
    15:00 +29°C° 0 mm 3 mps 732 mmHg 27%
    16:00 +27°C° 0 mm 2 mps 732 mmHg 32%
    17:00 +26°C° 0 mm 2 mps 731 mmHg 37%
    18:00 +25°C° 0 mm 2 mps 731 mmHg 42%
    19:00 +23°C° 0 mm 2 mps 732 mmHg 45%
    20:00 +21°C° 0 mm 1 mps 732 mmHg 47%
    21:00 +19°C° 0 mm 1 mps 732 mmHg 50%
    22:00 +19°C° 0 mm 1 mps 732 mmHg 51%
    23:00 +18°C° 0 mm 1 mps 731 mmHg 51%

    3 May, Wednesday

    Time Temperature Precipitation Wind Pressure Humidity
    00:00 +18°C° 0 mm 1 mps 731 mmHg 52%
    01:00 +18°C° 0.1 mm 1 mps 731 mmHg 53%
    02:00 +16°C° 0.1 mm 1 mps 731 mmHg 54%
    03:00 +16°C° 0.1 mm 1 mps 731 mmHg 55%
    04:00 +18°C° 0 mm 1 mps 731 mmHg 55%
    05:00 +18°C° 0 mm 1 mps 731 mmHg 54%
    06:00 +19°C° 0 mm 1 mps 732 mmHg 54%
    07:00 +20°C° 0 mm 2 mps 732 mmHg 49%
    08:00 +23°C° 0 mm 2 mps 732 mmHg 44%
    09:00 +25°C° 0 mm 2 mps 732 mmHg 38%
    10:00 +26°C° 0 mm 2 mps 732 mmHg 37%
    11:00 +27°C° 0 mm 2 mps 731 mmHg 36%
    12:00 +27°C° 0 mm 2 mps 731 mmHg 35%
    13:00 +28°C° 0 mm 2 mps 731 mmHg 35%
    14:00 +28°C° 0 mm 2 mps 731 mmHg 35%
    15:00 +28°C° 0 mm 1 mps 731 mmHg 34%
    16:00 +27°C° 0 mm 1 mps 731 mmHg 39%
    17:00 +26°C° 0 mm 1 mps 731 mmHg 44%
    18:00 +24°C° 0 mm 1 mps 731 mmHg 48%
    19:00 +22°C° 0.3 mm 1 mps 731 mmHg 52%
    20:00 +20°C° 0.3 mm 1 mps 731 mmHg 56%
    21:00 +18°C° 0.3 mm 1 mps 731 mmHg 60%
    22:00 +18°C° 0.3 mm 1 mps 731 mmHg 62%
    23:00 +16°C° 0.3 mm 1 mps 731 mmHg 64%
    Show more